Regional Weather Roundup
Issued by NWS

Home | Current Version | Previous Version | Graphics & Text | Print | Product List | Glossary On
Versions: 1 2 3 4 5 6 7 8 9 10 11 12 13 14 15 16 17 18 19 20 21 22 23 24 25 26 27
000
ASUS45 KBOU 301007
RWRCO

WEATHER ROUNDUP FOR COLORADO
NATIONAL WEATHER SERVICE DENVER/BOULDER CO
400 AM MDT SUN APR 30 2017

NOTE: "FAIR" INDICATES FEW OR NO CLOUDS BELOW 12000 FEET WITH NO
SIGNIFICANT WEATHER AND/OR OBSTRUCTIONS TO VISIBILITY.

COZ001>005-013-030-031-301100-
...NORTHWEST COLORADO...

CITY           SKY/WX    TMP DP  RH WIND       PRES   REMARKS
CRAIG          FAIR      21  16  81 CALM      30.18R
HAYDEN         NOT AVBL
MEEKER         FAIR      23  19  85 CALM      30.18R
MOUNT WERNER   NOT AVBL
STEAMBOAT SPGS FAIR      22  17  81 CALM      30.16R
WALDEN           N/A     12   7  79 SE7       30.14R WCI   2
$$

COZ006>008-011-301100-
...WEST CENTRAL VALLEYS...

CITY           SKY/WX    TMP DP  RH WIND       PRES   REMARKS
GRAND JUNCTION FAIR      29  16  58 NE5       30.17R WCI  24
MONTROSE       FAIR      30  24  78 E6        30.18R WCI  24
EAGLE          CLOUDY    26  22  84 E5        30.17R WCI  20
RIFLE          FAIR      31  20  63 CALM      30.17R
DELTA          FAIR      41  17  37 W14G23    30.14R
NUCLA          FAIR      32  16  51 N7        30.18S WCI  26
$$

COZ017>023-064>068-301100-
...SOUTHWEST COLORADO...

CITY           SKY/WX    TMP DP  RH WIND       PRES   REMARKS
DURANGO        CLOUDY    25  23  92 E3        30.02F FOG
CORTEZ         FAIR      32  20  61 NW7       30.11R WCI  26
PAGOSA SPRINGS FOG       28  28 100 CALM      30.04S VSB 1/4
TELLURIDE      FAIR      25  18  75 W7        30.12R WCI  17
WOLF CREEK PAS FAIR      12   9  85 NW8       30.06F WCI   1
$$

COZ009-010-012-014-032>034-037-058>063-301100-
...CENTRAL COLORADO...

CITY           SKY/WX    TMP DP  RH WIND       PRES   REMARKS
ASPEN          CLOUDY    28  20  71 CALM      30.11S
BUENA VISTA    FAIR      28  15  59 NW26      30.00F WCI  13
COPPER MTN     SNOW      14   9  79 MISG      30.05S VSB 1/2
BERTHOUD PASS  CLOUDY     5  -6  61 N23G33    30.00F WCI -17
COTTONWOOD PAS FAIR      27  10  50 SW25G32   29.99F WCI  11
GUNNISON       FAIR      23  16  74 NW3       30.09S
KREMMLING      FAIR      25  19  80 E5        30.16R WCI  19
LEADVILLE      CLOUDY    17  11  77 N9        30.06S WCI   6
MONARCH PASS     N/A     10   9  92 NW14G22   30.11S WCI  -5
SALIDA         FAIR      22  16  77 W9        30.09F WCI  12
SUNLIGHT       FAIR      14  10  85 N9        30.15S WCI   2
WILKERSON PASS FAIR     N/A N/A N/A NW10G23   29.95F
$$

COZ069>075-301100-
...SAN LUIS VALLEY/SANGRE DE CRISTO MOUNTAINS...

CITY           SKY/WX    TMP DP  RH WIND       PRES   REMARKS
ALAMOSA        FAIR      19  17  92 W5        29.99S WCI  12
LA VETA PASS   MOCLDY    19  14  79 W16G25    30.04F WCI   5
SAGUACHE       FAIR      30  14  51 N15       29.99F WCI  19
$$

COZ035-036-038>040-301100-
...NORTHERN COLORADO FRONT RANGE...

CITY           SKY/WX    TMP DP  RH WIND       PRES   REMARKS
DENVER INTL AP FAIR      29  19  66 NW13      30.03F WCI  19
DMNS CITY PARK   N/A     27  17  66 MISG      30.04F
AURORA         PTCLDY    24  17  74 NW10      30.03F WCI  14
FRONT RANGE AP FAIR      25  21  86 NW10      30.03F WCI  15
ERIE MUNI ARPT FAIR      26  21  80 CALM      30.06F
BOULDER MUN AP FAIR      30  19  64 SW5       30.05F WCI  25
CENTENNIAL     FAIR      25  17  72 NW9       30.02F WCI  15
BROOMFIELD     FAIR      30  18  59 W12       30.05F WCI  21
FORT COLLINS   FAIR      26  17  68 N8        30.07F WCI  18
LONGMONT       FAIR      30  21  67 W7        30.08F WCI  24
$$

COZ041-046-047-076>085-087-088-301100-
...PIKES PEAK/PALMER DIVIDE AND SOUTHERN FOOTHILLS...

CITY           SKY/WX    TMP DP  RH WIND       PRES   REMARKS
COLO. SPRINGS  MOCLDY    30  11  45 NW20G36   29.97S WCI  17
A. F. ACADEMY  FAIR      27  12  53 NW21      29.97S WCI  13
SCHRIEVER AFB  MOCLDY    28  15  59 NW20G26   29.96F WCI  15
ELLICOTT       FAIR     N/A N/A N/A N28G36    29.91F
FALCON         FAIR      27  13  57 NW20G36   29.96S WCI  13
FORT CARSON    FAIR      30  10  42 NW25G37   29.96S WCI  16
LIMON          MIX PCPN  28  23  81 NW33G39   29.91F WCI  11
MONUMENT HILL  FAIR      19  12  73 NW15      30.00F WCI   5
TRINIDAD       CLOUDY    28  23  81 NW15      29.96S WCI  16
$$

COZ042>045-048>051-090-091-301100-
...NORTHEAST COLORADO...

CITY           SKY/WX    TMP DP  RH WIND       PRES   REMARKS
GREELEY ARPT   FAIR      31  22  69 NW12      30.07F WCI  22
AKRON          FAIR      32  22  66 N20G29    29.97F WCI  20
BURLINGTON     NOT AVBL
WRAY           NOT AVBL
STERLING       FAIR      34  28  80 NW14      30.01F WCI  24
HOLYOKE        CLOUDY    37  27  65 N17       29.97S
FORT MORGAN    FAIR      32  23  68 NW16      30.04F WCI  21
$$

COZ086-089-092>099-301100-
...SOUTHEAST COLORADO...

CITY           SKY/WX    TMP DP  RH WIND       PRES   REMARKS
PUEBLO         FAIR      35  20  54 NW18G26   29.97F WCI  24
LA JUNTA       CLOUDY    36  25  64 NW24      29.94S
LAMAR          FLURRIES  37  27  67 NW24G33   29.86F
SPRINGFIELD      N/A     30  30 100 N38G46    29.81F WCI  13
$$




USA.gov is the U.S. government's official web portal to all federal, state and local government web resources and services.